Location: Banios
(43.0451°N, 0.2335°E)
Time: 13:52:39
(UTC+00:00)

USA 306 - Pass Details

Date: 25 January 2021
Orbit: 565 x 578 km, 54.0° (Epoch: 24 February)

Event Time Altitude Azimuth Distance (km) Brightness Sun altitude
Exits shadow 06:34:20 - 265° (W) 1,917 5.0 -8.7°
Reaches altitude 10° 06:34:29 10° 266° (W) 1,859 4.9 -8.7°
Maximum altitude 06:38:24 36° 334° (NNW) 907 3.6 -8.0°
Drops below altitude 10° 06:42:20 10° 42° (NE) 1,864 5.8 -7.4°
Sets 06:44:44 0° 51° (NE) 2,764 6.9 -6.9°
